Location: *
(47.8307°S, 178.3954°E)
Time: 08:22:21
(UTC+00:00)

COSMOS 2455 - Pass Details

Date: 12 August 2024
Orbit: 898 x 911 km, 67.2° (Epoch: 18 September)

Event Time Altitude Azimuth Distance (km) Brightness Sun altitude
Exits shadow 17:24:45 - 208° (SSW) 3,014 5.3 -18.6°
Reaches altitude 10° 17:25:59 10° 203° (SSW) 2,609 5.0 -18.4°
Maximum altitude 17:31:24 33° 139° (SE) 1,490 4.3 -17.5°
Drops below altitude 10° 17:36:47 10° 76° (ENE) 2,593 6.5 -16.6°
Sets 17:39:33 0° 66° (ENE) 3,529 7.3 -16.1°
